User: anonymous   Login
Location: Kaarina
(60.4167°N, 22.4167°E)
Time: 04:28:37
(UTC+03:00)
Language:

Cosmos 1674 - Orbit

View from above orbital plane
View from above orbital plane
View from above satellite
View from above satellite

Ground track
Ground track

The orbit data is extracted from the following two-line orbital elements,

1 15944U 85069A   19288.87339797  .00000440  00000-0  19063-4 0  9993
2 15944  82.5050 105.8378 0018241  53.1751 307.1154 15.19514463867084
Epoch (UTC): 15 October 2019 20:57:41
Eccentricity: 0.0018241
inclination: 82.5050°
perigee height: 495 km
apogee height: 520 km
right ascension of ascending node: 105.8378°
argument of perigee: 53.1751°
revolutions per day: 15.19514463
mean anomaly at epoch: 307.1154°
orbit number at epoch: 86708

The dashed part of the orbit path shows where the satellite is in the earth's shadow,  

DLR